Avoca, PA

2:51 PM EST on November 13, 2019 (GMT -0500)
Wilkes-Barre-Scranton International

Weather History for KAVP - September, 2019

Change the Weather History Date:

Tuesday, September 3, 2019

  Actual Average Record
Temperature  
Mean Temperature 70 °F 67 °F  
Max Temperature 83 °F 77 °F 100 °F (1953)
Min Temperature 57 °F 57 °F 42 °F (1967)
Degree Days  
Heating Degree Days 0 2  
Month to date heating degree days 0 5  
Since 1 July heating degree days 1 31  
Cooling Degree Days 5 3  
Month to date cooling degree days 14 10  
Year to date cooling degree days 753 534  
Growing Degree Days 20 (Base 50)    
Moisture  
Dew Point 59 °F    
Average Humidity 72    
Maximum Humidity 100    
Minimum Humidity 43    
Precipitation  
Precipitation 0.00 in 0.13 in 1.39 in (1974)
Month to date precipitation 0.05 0.37  
Year to date precipitation 37.71 25.40  
Sea Level Pressure  
Sea Level Pressure 30.04 in    
Wind  
Wind Speed 3 mph (SE)    
Max Wind Speed 13 mph    
Max Gust Speed 17 mph    
Visibility 9 miles    
Events      
T = Trace of Precipitation, MM = Missing Value Source: NWS Daily Summary

Daily Weather History Graph

Daily Weather History Graph

Search for Another Location

Airport or City:

Astronomy

Sep. 03, 2019 Rise Set
Actual Time 6:30 AM EDT 7:32 PM EDT
Civil Twilight 6:02 AM EDT 8:01 PM EDT
Nautical Twilight 5:28 AM EDT 8:34 PM EDT
Astronomical Twilight 4:53 AM EDT 9:09 PM EDT
Moon 11:24 AM EDT (9/3) 10:24 PM EDT (9/3)
Length of Visible Light 13h 58m
Length of Day
13h 01m
Waxing Crescent, 24% of the Moon is Illuminated
Sep 3
Waxing Crescent
Sep 5
First Quarter
Sep 14
Full
Sep 21
Last Quarter
Sep 28
New

Hourly Weather History & Observations

Time (EDT) Temp. Heat Index Dew Point Humidity Pressure Visibility Wind Dir Wind Speed Gust Speed Precip Events Conditions
12:54 AM 63.0 °F - 61.0 °F 93% 30.04 in 9.0 mi East 3.5 mph - N/A   Clear
1:54 AM 62.1 °F - 60.1 °F 93% 30.05 in 9.0 mi Calm Calm - N/A   Clear
2:54 AM 61.0 °F - 59.0 °F 93% 30.03 in 10.0 mi ESE 3.5 mph - N/A   Clear
3:54 AM 59.0 °F - 57.9 °F 96% 30.02 in 7.0 mi Calm Calm - N/A   Clear
4:54 AM 59.0 °F - 57.0 °F 93% 30.03 in 8.0 mi Calm Calm - N/A   Clear
5:21 AM 57.9 °F - 57.0 °F 97% 30.06 in 7.0 mi Calm Calm - N/A   Partly Cloudy
5:54 AM 57.9 °F - 57.0 °F 97% 30.05 in 8.0 mi Calm Calm - N/A   Clear
6:10 AM 57.9 °F - 57.0 °F 97% 30.08 in 9.0 mi East 4.6 mph - N/A   Mostly Cloudy
6:30 AM 57.9 °F - 57.0 °F 97% 30.09 in 9.0 mi East 4.6 mph - N/A   Scattered Clouds
6:54 AM 57.9 °F - 55.9 °F 93% 30.08 in 8.0 mi SE 4.6 mph - N/A   Clear
7:54 AM 60.1 °F - 57.0 °F 90% 30.09 in 8.0 mi SE 3.5 mph - N/A   Clear
8:54 AM 64.0 °F - 60.1 °F 87% 30.09 in 3.0 mi Calm Calm - N/A   Clear
9:18 AM 64.9 °F - 60.1 °F 84% 30.11 in 3.0 mi WSW 3.5 mph - N/A   Scattered Clouds
9:26 AM 64.9 °F - 61.0 °F 87% 30.11 in 3.0 mi SW 3.5 mph - N/A   Mostly Cloudy
9:54 AM 68.0 °F - 62.1 °F 81% 30.09 in 3.0 mi Calm Calm - N/A   Partly Cloudy
10:54 AM 69.1 °F - 62.1 °F 78% 30.09 in 10.0 mi Variable 4.6 mph - N/A   Clear
11:54 AM 73.9 °F - 60.1 °F 62% 30.06 in 10.0 mi Calm Calm - N/A   Clear
12:54 PM 75.9 °F - 59.0 °F 56% 30.06 in 10.0 mi North 3.5 mph - N/A   Clear
1:54 PM 79.0 °F - 57.9 °F 48% 30.04 in 10.0 mi Variable 4.6 mph - N/A   Clear
2:54 PM 80.1 °F 80.7 °F 59.0 °F 48% 30.01 in 10.0 mi Calm Calm - N/A   Clear
3:54 PM 82.0 °F 81.7 °F 57.0 °F 42% 30.00 in 10.0 mi West 9.2 mph - N/A   Clear
4:54 PM 81.0 °F 81.1 °F 57.9 °F 45% 29.98 in 10.0 mi SW 10.4 mph - N/A   Clear
5:54 PM 81.0 °F 81.3 °F 59.0 °F 47% 29.98 in 10.0 mi WSW 6.9 mph - N/A   Clear
6:54 PM 77.0 °F - 62.1 °F 60% 29.97 in 10.0 mi Variable 4.6 mph - N/A   Mostly Cloudy
7:54 PM 73.9 °F - 62.1 °F 66% 29.96 in 10.0 mi Variable 4.6 mph - N/A   Clear
8:54 PM 73.9 °F - 60.1 °F 62% 29.98 in 10.0 mi Variable 4.6 mph - N/A   Clear
9:54 PM 69.1 °F - 61.0 °F 75% 29.99 in 10.0 mi ENE 3.5 mph - N/A   Clear
10:54 PM 71.1 °F - 61.0 °F 70% 29.99 in 10.0 mi Calm Calm - N/A   Clear
11:54 PM 69.1 °F - 61.0 °F 75% 29.99 in 10.0 mi East 3.5 mph - N/A   Scattered Clouds